EN

Hourly Weather Luka

Today, 25 November, Wednesday

Time Temperature Precipitation Wind Pressure Humidity
00:00 +1°C° 0 mm 2 mps 749 mmHg 94%
01:00 +1°C° 0 mm 2 mps 750 mmHg 95%
02:00 +2°C° 0 mm 1 mps 750 mmHg 97%
03:00 +2°C° 0 mm 1 mps 750 mmHg 96%
04:00 +2°C° 0 mm 1 mps 750 mmHg 96%
05:00 +2°C° 0 mm 1 mps 750 mmHg 96%
06:00 +2°C° 0 mm 1 mps 750 mmHg 96%
07:00 0°C° 0 mm 0 mps 750 mmHg 96%
08:00 0°C° 0 mm 0 mps 751 mmHg 95%
09:00 +1°C° 0 mm 0 mps 751 mmHg 93%
10:00 +1°C° 0 mm 0 mps 751 mmHg 91%
11:00 +3°C° 0 mm 1 mps 751 mmHg 90%
12:00 +2°C° 0 mm 0 mps 752 mmHg 89%
13:00 +2°C° 0 mm 0 mps 752 mmHg 89%
14:00 +2°C° 0 mm 0 mps 753 mmHg 89%
15:00 +3°C° 0 mm 1 mps 753 mmHg 90%
16:00 +3°C° 0 mm 1 mps 753 mmHg 91%
17:00 +2°C° 0 mm 1 mps 753 mmHg 92%
18:00 +3°C° 0 mm 1 mps 753 mmHg 93%
19:00 +2°C° 0 mm 2 mps 753 mmHg 93%
20:00 +2°C° 0 mm 2 mps 753 mmHg 94%
21:00 +3°C° 0.1 mm 2 mps 753 mmHg 94%
22:00 +3°C° 0.1 mm 2 mps 752 mmHg 95%
23:00 +2°C° 0.1 mm 3 mps 752 mmHg 95%

Tomorrow, 26 November, Thursday

Time Temperature Precipitation Wind Pressure Humidity
00:00 +2°C° 0.6 mm 3 mps 752 mmHg 96%
01:00 +3°C° 0.6 mm 3 mps 752 mmHg 96%
02:00 +3°C° 0.6 mm 3 mps 752 mmHg 97%
03:00 +3°C° 0.3 mm 3 mps 751 mmHg 97%
04:00 +4°C° 0.3 mm 3 mps 751 mmHg 96%
05:00 +4°C° 0.3 mm 3 mps 750 mmHg 96%
06:00 +4°C° 0 mm 3 mps 750 mmHg 96%
07:00 +4°C° 0 mm 3 mps 750 mmHg 96%
08:00 +4°C° 0 mm 3 mps 750 mmHg 95%
09:00 +5°C° 0 mm 3 mps 750 mmHg 92%
10:00 +5°C° 0 mm 3 mps 749 mmHg 89%
11:00 +5°C° 0 mm 4 mps 749 mmHg 85%
12:00 +5°C° 0 mm 4 mps 749 mmHg 84%
13:00 +5°C° 0 mm 4 mps 749 mmHg 82%
14:00 +4°C° 0 mm 3 mps 749 mmHg 81%
15:00 +4°C° 0 mm 3 mps 748 mmHg 82%
16:00 +3°C° 0 mm 3 mps 748 mmHg 82%
17:00 +3°C° 0 mm 3 mps 748 mmHg 83%
18:00 +3°C° 0 mm 3 mps 747 mmHg 82%
19:00 +1°C° 0 mm 4 mps 747 mmHg 82%
20:00 +1°C° 0 mm 4 mps 747 mmHg 82%
21:00 +1°C° 0 mm 4 mps 747 mmHg 83%
22:00 0°C° 0 mm 4 mps 746 mmHg 84%
23:00 0°C° 0 mm 4 mps 746 mmHg 86%

Day after tomorrow, 27 November, Friday

Time Temperature Precipitation Wind Pressure Humidity
00:00 +1°C° 0.5 mm 3 mps 746 mmHg 88%
01:00 +1°C° 0.5 mm 3 mps 746 mmHg 90%
02:00 +1°C° 0.5 mm 3 mps 745 mmHg 93%
03:00 +2°C° 0.3 mm 3 mps 745 mmHg 93%
04:00 +2°C° 0.3 mm 3 mps 745 mmHg 94%
05:00 +2°C° 0.3 mm 3 mps 745 mmHg 95%
06:00 +3°C° 0.1 mm 2 mps 745 mmHg 94%
07:00 +3°C° 0.1 mm 2 mps 745 mmHg 94%
08:00 +3°C° 0.1 mm 2 mps 745 mmHg 94%
09:00 +2°C° 0 mm 3 mps 745 mmHg 89%
10:00 +2°C° 0 mm 3 mps 745 mmHg 84%
11:00 +2°C° 0 mm 3 mps 745 mmHg 79%
12:00 +2°C° 0.1 mm 3 mps 746 mmHg 81%
13:00 +2°C° 0.1 mm 3 mps 746 mmHg 83%
14:00 +1°C° 0.1 mm 3 mps 746 mmHg 85%
15:00 +2°C° 0.1 mm 2 mps 746 mmHg 88%
16:00 +1°C° 0.1 mm 2 mps 747 mmHg 92%
17:00 +1°C° 0.1 mm 2 mps 747 mmHg 95%
18:00 +1°C° 0.1 mm 2 mps 747 mmHg 95%
19:00 +1°C° 0.1 mm 2 mps 748 mmHg 95%
20:00 +1°C° 0.1 mm 2 mps 748 mmHg 96%
21:00 -1°C° 0.1 mm 2 mps 749 mmHg 95%
22:00 -1°C° 0.1 mm 2 mps 749 mmHg 95%
23:00 -1°C° 0.1 mm 2 mps 750 mmHg 95%

28 November, Saturday

Time Temperature Precipitation Wind Pressure Humidity
00:00 -1°C° 0.1 mm 2 mps 750 mmHg 94%
01:00 -1°C° 0.1 mm 2 mps 751 mmHg 92%
02:00 -1°C° 0.1 mm 2 mps 751 mmHg 91%
03:00 -1°C° 0 mm 2 mps 751 mmHg 90%
04:00 -1°C° 0 mm 2 mps 752 mmHg 89%
05:00 -1°C° 0 mm 2 mps 752 mmHg 89%
06:00 -1°C° 0 mm 2 mps 753 mmHg 91%
07:00 -1°C° 0 mm 2 mps 753 mmHg 94%
08:00 -2°C° 0 mm 2 mps 754 mmHg 96%
09:00 -1°C° 0 mm 2 mps 754 mmHg 94%
10:00 +1°C° 0 mm 2 mps 755 mmHg 92%
11:00 0°C° 0 mm 3 mps 756 mmHg 89%
12:00 0°C° 0 mm 3 mps 756 mmHg 88%
13:00 +1°C° 0 mm 2 mps 756 mmHg 86%
14:00 +1°C° 0 mm 2 mps 756 mmHg 84%
15:00 -1°C° 0 mm 2 mps 757 mmHg 86%
16:00 -1°C° 0 mm 2 mps 757 mmHg 88%
17:00 -2°C° 0 mm 2 mps 758 mmHg 90%
18:00 -2°C° 0 mm 2 mps 758 mmHg 90%
19:00 -2°C° 0 mm 2 mps 759 mmHg 90%
20:00 -2°C° 0 mm 2 mps 759 mmHg 90%
21:00 -2°C° 0 mm 2 mps 759 mmHg 89%
22:00 -2°C° 0 mm 2 mps 760 mmHg 88%
23:00 -2°C° 0 mm 2 mps 760 mmHg 87%

29 November, Sunday

Time Temperature Precipitation Wind Pressure Humidity
00:00 -2°C° 0 mm 2 mps 760 mmHg 89%
01:00 -2°C° 0 mm 2 mps 761 mmHg 90%
02:00 -3°C° 0 mm 2 mps 761 mmHg 92%
03:00 -3°C° 0 mm 2 mps 761 mmHg 92%
04:00 -3°C° 0 mm 2 mps 761 mmHg 92%
05:00 -3°C° 0 mm 2 mps 761 mmHg 93%
06:00 -3°C° 0 mm 2 mps 762 mmHg 92%
07:00 -3°C° 0 mm 2 mps 762 mmHg 91%
08:00 -3°C° 0 mm 2 mps 762 mmHg 91%
09:00 -3°C° 0 mm 2 mps 762 mmHg 87%
10:00 -2°C° 0 mm 2 mps 762 mmHg 83%
11:00 -2°C° 0 mm 2 mps 763 mmHg 79%
12:00 -1°C° 0 mm 2 mps 763 mmHg 77%
13:00 -1°C° 0 mm 2 mps 763 mmHg 74%
14:00 -1°C° 0 mm 2 mps 762 mmHg 72%
15:00 -2°C° 0 mm 2 mps 763 mmHg 72%
16:00 -2°C° 0 mm 2 mps 763 mmHg 73%
17:00 -2°C° 0 mm 3 mps 763 mmHg 74%
18:00 -2°C° 0 mm 3 mps 763 mmHg 75%
19:00 -4°C° 0 mm 3 mps 763 mmHg 75%
20:00 -4°C° 0 mm 3 mps 763 mmHg 75%
21:00 -4°C° 0 mm 3 mps 763 mmHg 76%
22:00 -4°C° 0 mm 3 mps 762 mmHg 76%
23:00 -4°C° 0 mm 3 mps 762 mmHg 76%

30 November, Monday

Time Temperature Precipitation Wind Pressure Humidity
00:00 -5°C° 0 mm 3 mps 762 mmHg 77%
01:00 -5°C° 0 mm 3 mps 762 mmHg 78%
02:00 -4°C° 0 mm 2 mps 762 mmHg 78%
03:00 -5°C° 0 mm 3 mps 762 mmHg 78%
04:00 -5°C° 0 mm 3 mps 761 mmHg 78%
05:00 -5°C° 0 mm 3 mps 761 mmHg 78%
06:00 -5°C° 0 mm 3 mps 761 mmHg 78%
07:00 -5°C° 0 mm 3 mps 761 mmHg 79%
08:00 -5°C° 0 mm 3 mps 761 mmHg 79%
09:00 -4°C° 0 mm 4 mps 760 mmHg 79%
10:00 -4°C° 0 mm 4 mps 760 mmHg 79%
11:00 -3°C° 0 mm 4 mps 760 mmHg 79%
12:00 -3°C° 0 mm 4 mps 760 mmHg 80%
13:00 -2°C° 0 mm 4 mps 759 mmHg 80%
14:00 -2°C° 0 mm 4 mps 759 mmHg 81%
15:00 -1°C° 0 mm 4 mps 759 mmHg 85%
16:00 0°C° 0 mm 3 mps 759 mmHg 89%
17:00 0°C° 0 mm 3 mps 759 mmHg 93%
18:00 0°C° 0.1 mm 3 mps 759 mmHg 94%
19:00 0°C° 0.1 mm 3 mps 759 mmHg 96%
20:00 +1°C° 0.1 mm 2 mps 759 mmHg 97%
21:00 +1°C° 0 mm 2 mps 759 mmHg 95%
22:00 -1°C° 0 mm 2 mps 759 mmHg 93%
23:00 -1°C° 0 mm 2 mps 760 mmHg 92%
Show more